Location: Unspecified
(0.0000°N, 0.0000°E)
Time: 08:49:08
(UTC+00:00)

COSMOS 2489 - Visible Passes

Search period start: 10 June 2023 00:00
Search period end: 20 June 2023 00:00
Orbit: 1477 x 1511 km, 82.5° (Epoch: 09 June)

Date Brightness Start Highest point End Pass type
(mag) Time Alt. Az. Time Alt. Az. Time Alt. Az.
10 Jun ? 03:35:15 10° N 03:44:05 75° E 03:52:54 10° S visible
11 Jun ? 02:47:06 10° NNE 02:54:54 35° E 03:02:39 10° SSE visible
11 Jun ? 04:43:56 10° NW 04:51:18 30° W 04:58:42 10° SSW visible
12 Jun ? 02:01:29 10° ENE 02:05:42 14° E 02:09:52 10° ESE visible
12 Jun ? 03:53:23 10° NNW 04:02:07 66° W 04:09:04 18° S visible
13 Jun ? 03:04:14 10° N 03:12:56 61° E 03:16:59 34° SSE visible
13 Jun ? 05:04:35 10° WNW 05:09:20 16° W 05:12:42 13° WSW visible
14 Jun ? 02:16:34 10° NNE 02:23:44 28° E 02:26:05 25° ESE visible
14 Jun ? 04:12:14 10° NNW 04:20:09 38° W 04:21:52 35° WSW visible
15 Jun ? 01:34:04 10° E 01:34:32 10° E 01:34:59 10° E visible
15 Jun ? 03:22:07 10° N 03:30:57 80° W 03:31:26 78° SW visible
16 Jun ? 02:33:21 10° NNE 02:41:13 49° ENE 02:41:13 49° ENE visible
16 Jun ? 04:32:09 10° NW 04:37:03 20° W 04:37:03 20° W visible
17 Jun ? 01:46:15 10° NE 01:51:12 21° ENE 01:51:12 21° ENE visible
17 Jun ? 03:40:40 10° NNW 03:47:02 41° WNW 03:47:02 41° WNW visible
18 Jun ? 02:50:57 10° N 02:57:09 52° N 02:57:09 52° N visible
19 Jun ? 02:02:33 10° NNE 02:07:21 30° NE 02:07:21 30° NE visible
19 Jun ? 04:00:05 10° NW 04:03:12 20° WNW 04:03:12 20° WNW visible
